Miscellaneous Local Product
Issued by NWS North Platte, NE

Home | Current Version | Previous Version | Text Only | Print | Product List | Glossary On
Versions: 1 2 3 4 5 6 7 8 9 10 11 12 13 14 15 16 17 18 19 20 21 22 23 24 25 26 27 28 29 30 31 32 33 34 35 36 37 38 39 40 41 42 43 44 45 46 47 48 49 50
000
AXUS43 KLBF 281710
MISLBF


WESTERN AND NORTH CENTRAL NEBRASKA HOURLY WEATHER ROUNDUP
NATIONAL WEATHER SERVICE NORTH PLATTE NE
1200 PM CDT SAT MAY 28 2016

NOTE: "FAIR" INDICATES FEW OR NO CLOUDS BELOW 12,000 FEET WITH NO
SIGNIFICANT WEATHER AND/OR OBSTRUCTIONS TO VISIBILITY.

NOTE: STATIONS NOT REPORTING VARIABLES SUCH AS SKY/WEATHER OR
PRESSURE ARE PROVIDED BY RAWS AND APRS NETWORKS AND ARE NOT UNDER
NATIONAL WEATHER SERVICE QUALITY CONTROL.

...OBSERVATIONS IN AND NEAR THE EASTERN PANHANDLE OF NEBRASKA...

CITY           SKY/WX    TMP DP  RH WIND       PRES   REMARKS
PINE RIDGE     SUNNY     68  45  43 VRB5      29.92S
CHADRON        SUNNY     69  47  45 VRB6      29.93R
ALLIANCE       SUNNY     66  47  50 MISG      29.95R
SIDNEY         SUNNY     66  46  48 W8        30.00R
CRESCENT LAKE    N/A     67  46  46 NW6         N/A
BIG SPRINGS      N/A     62  52  70 W6          N/A
$$

...OBSERVATIONS IN NORTHERN NEBRASKA AND FAR SOUTHERN SOUTH DAKOTA...

CITY           SKY/WX    TMP DP  RH WIND       PRES   REMARKS
WINNER         CLOUDY    64  55  72 NW9       29.86R
VALENTINE      CLOUDY    67  51  56 NW13      29.89R
THEDFORD       MOSUNNY   67  51  57 NW8       29.92R
AINSWORTH      CLOUDY    63  53  68 NW10      29.89R
O`NEILL        HVY RAIN  60  57  89 NW8       29.84R
ORD            PTSUNNY   65  57  75 NW13      29.85R
BROKEN BOW     MOSUNNY   65  53  65 NW14G21   29.89R
BUTTE            N/A     62  57  85 NW12G20     N/A
CHAMBERS         N/A     63  56  79 CALM        N/A
EWING            N/A     60  57  90 NW9         N/A
$$

...OBSERVATIONS IN SOUTHWEST NEBRASKA AND FAR NORTHEAST COLORADO...

CITY           SKY/WX    TMP DP  RH WIND       PRES   REMARKS
WRAY           FAIR      68  46  45 W5        29.99S
HOLYOKE        FAIR      68  46  45 SW6       29.98S
IMPERIAL       SUNNY     66  49  54 NW8       29.97R
OGALLALA       MOSUNNY   67  51  57 W6        29.95S
NORTH PLATTE   MOSUNNY   68  53  58 W9        29.93R
MCCOOK         MOSUNNY   69  54  58 VRB6      29.94R
LEXINGTON      MOSUNNY   68  57  68 NW8       29.91S
PAXTON           N/A     64  54  71 W3          N/A
STAPLETON        N/A     68  55  62 CALM        N/A
GOTHENBURG       N/A     65  52  62 W5          N/A
CALLAWAY         N/A     64  58  80 NW12        N/A
$$

...OBSERVATIONS IN CENTRAL LINCOLN COUNTY AREA...

CITY           SKY/WX    TMP DP  RH WIND       PRES   REMARKS
N.P. AIRPORT   MOSUNNY   68  53  58 W9        29.93R
N.P. DOWNTOWN    N/A     68  51  54 W5G12       N/A
N.P. SOUTHEAST   N/A     69  51  53 NW3         N/A
N.P. HILLCREST   N/A     67  50  54 W9          N/A
$$

...SOME OBSERVATIONS FROM AROUND THE REGION...

CITY           SKY/WX    TMP DP  RH WIND       PRES   REMARKS
DENVER         MOSUNNY   64  40  41 VRB7      30.04S
LARAMIE        CLOUDY    55  33  43 VRB6      30.08R
CHEYENNE       MOSUNNY   63  35  35 MISG      30.04S
SCOTTSBLUFF    SUNNY     69  44  40 W7        29.97S
RAPID CITY     MOSUNNY   69  47  45 NE6       29.91S
BISMARCK       CLOUDY    66  55  67 E5        29.88S
PIERRE         CLOUDY    68  54  60 N7        29.84S
SIOUX FALLS    CLOUDY    66  59  78 N9        29.77S
OMAHA          PTSUNNY   69  58  67 SW9       29.78S
GRAND ISLAND   PTSUNNY   68  56  65 NW17      29.86R
KANSAS CITY    PTSUNNY   70  62  76 SW14      29.86R
WICHITA        MOSUNNY   74  59  59 W12       29.92R
OKLAHOMA CITY  MOSUNNY   75  59  57 CALM      29.95S
DALLAS         CLOUDY    75  66  73 S3        29.96S
AMARILLO       SUNNY     72  44  36 SE7       30.06R
DODGE CITY     SUNNY     71  50  47 NW12G22   29.98R
HAYS           MOSUNNY   66  52  59 NW7       29.94S
GOODLAND       SUNNY     66  48  52 W7        30.00R
$$




USA.gov is the U.S. government's official web portal to all federal, state and local government web resources and services.